This is the latest recevied weather packets stored in our database for station/object NB9X. If no packets are shown the sender has not sent any weather packets the latest 10 day(s).
| Time | Temp. | Humidity | Pressure | Rain* | Wind** | Luminosity | Snow |
|---|---|---|---|---|---|---|---|
| 1777749197 | 21.11° C | 100% | 1010.4 hPa | 15.75 mm | - | - | - |
| 1777748897 | 20.56° C | 100% | 1010.6 hPa | 15.49 mm | - | - | - |
| 1777748597 | 21.11° C | 100% | 1011.4 hPa | 9.14 mm | - | - | - |
| 1777748297 | 22.22° C | 100% | 1010.6 hPa | 0.51 mm | - | - | - |
| 1777748072 | 26.67° C | 100% | 1010.2 hPa | 0 mm | - | - | - |
| 1777747997 | 26.11° C | 100% | 1010.1 hPa | 0 mm | - | - | - |
| 1777747697 | 26.11° C | 100% | 1010 hPa | 0 mm | - | - | - |
| 1777747397 | 26.11° C | 100% | 1010.1 hPa | 0 mm | - | - | - |
| 1777747097 | 26.11° C | 100% | 1010.4 hPa | 0 mm | - | - | - |
| 1777746797 | 26.11° C | 100% | 1010.3 hPa | 0 mm | - | - | - |
| 1777746497 | 26.67° C | 100% | 1010.2 hPa | 0 mm | - | - | - |
| 1777746197 | 26.67° C | 100% | 1010.4 hPa | 0 mm | - | - | - |
| 1777745897 | 26.67° C | 100% | 1010.3 hPa | 0 mm | - | - | - |
| 1777745597 | 26.67° C | 100% | 1010.2 hPa | 0 mm | - | - | - |
| 1777745297 | 26.67° C | 100% | 1010.3 hPa | 0 mm | - | - | - |
| 1777744997 | 26.67° C | 100% | 1009.4 hPa | 0 mm | - | - | - |
| 1777744697 | 26.67° C | 100% | 1010.5 hPa | 0 mm | - | - | - |
| 1777744397 | 26.67° C | 100% | 1010.6 hPa | 0 mm | - | - | - |
| 1777744097 | 26.67° C | 100% | 1010.7 hPa | 0 mm | - | - | - |
| 1777743973 | 26.67° C | 100% | 1010.5 hPa | 0 mm | - | - | - |
| 1777743797 | 26.67° C | 100% | 1010.6 hPa | 0 mm | - | - | - |
| 1777743497 | 26.67° C | 100% | 1010.5 hPa | 0 mm | - | - | - |
| 1777743197 | 26.67° C | 100% | 1010.6 hPa | 0 mm | - | - | - |
| 1777742897 | 27.22° C | 100% | 1010.7 hPa | 0 mm | - | - | - |
| 1777742597 | 27.22° C | 100% | 1010.6 hPa | 0 mm | - | - | - |
* Rain latest hour (hover to see other rain measurements)
** Current wind speed in m/s (hover to see current wind gust speed)